When you browse on this site, cookies collect data to enhance your experience and personalize the content and advertising you see.
Visit our Privacy Policy to learn more. By continuing to use the site, you agree to this use of cookies and data.
  • In Spain
  • List of Countries
  • For 7 days
  • Water Temperature
  • Weather Map
  • Weather Widgets
  • user-avatar
    Login

    Hourly Weather La Rioja

    Today, 23 January, Thursday

    Time Temperature Precipitation Wind Pressure Humidity
    00:00 +29°C° 0 mm 2 mps 716 mmHg 46%
    01:00 +28°C° 0 mm 2 mps 716 mmHg 49%
    02:00 +27°C° 0 mm 1 mps 715 mmHg 54%
    03:00 +27°C° 0 mm 1 mps 715 mmHg 56%
    04:00 +27°C° 0 mm 1 mps 715 mmHg 57%
    05:00 +26°C° 0 mm 1 mps 715 mmHg 59%
    06:00 +27°C° 0 mm 1 mps 716 mmHg 55%
    07:00 +28°C° 0 mm 2 mps 716 mmHg 52%
    08:00 +29°C° 0 mm 2 mps 716 mmHg 49%
    09:00 +30°C° 0 mm 2 mps 716 mmHg 45%
    10:00 +31°C° 0 mm 2 mps 716 mmHg 42%
    11:00 +34°C° 0 mm 3 mps 716 mmHg 38%
    12:00 +35°C° 0 mm 3 mps 715 mmHg 36%
    13:00 +36°C° 0 mm 3 mps 714 mmHg 35%
    14:00 +37°C° 0 mm 3 mps 713 mmHg 33%
    15:00 +37°C° 0 mm 3 mps 713 mmHg 31%
    16:00 +37°C° 0 mm 3 mps 712 mmHg 30%
    17:00 +38°C° 0 mm 4 mps 712 mmHg 28%
    18:00 +37°C° 0 mm 4 mps 712 mmHg 30%
    19:00 +36°C° 0 mm 4 mps 712 mmHg 32%
    20:00 +34°C° 0 mm 4 mps 712 mmHg 34%
    21:00 +33°C° 0 mm 3 mps 713 mmHg 38%
    22:00 +33°C° 0 mm 3 mps 713 mmHg 42%
    23:00 +31°C° 0 mm 2 mps 714 mmHg 45%

    Tomorrow, 24 January, Friday

    Time Temperature Precipitation Wind Pressure Humidity
    00:00 +30°C° 0 mm 2 mps 713 mmHg 48%
    01:00 +29°C° 0 mm 2 mps 713 mmHg 50%
    02:00 +28°C° 0 mm 1 mps 713 mmHg 52%
    03:00 +28°C° 0 mm 1 mps 713 mmHg 53%
    04:00 +27°C° 0 mm 1 mps 713 mmHg 54%
    05:00 +27°C° 0 mm 1 mps 713 mmHg 55%
    06:00 +28°C° 0 mm 1 mps 714 mmHg 52%
    07:00 +28°C° 0 mm 1 mps 714 mmHg 49%
    08:00 +29°C° 0 mm 2 mps 715 mmHg 47%
    09:00 +30°C° 0 mm 2 mps 715 mmHg 43%
    10:00 +32°C° 0 mm 2 mps 715 mmHg 40%
    11:00 +34°C° 0 mm 2 mps 715 mmHg 37%
    12:00 +35°C° 0 mm 2 mps 714 mmHg 34%
    13:00 +36°C° 0 mm 2 mps 714 mmHg 31%
    14:00 +37°C° 0 mm 2 mps 713 mmHg 28%
    15:00 +38°C° 0 mm 3 mps 712 mmHg 26%
    16:00 +38°C° 0 mm 3 mps 712 mmHg 25%
    17:00 +38°C° 0 mm 3 mps 711 mmHg 23%
    18:00 +37°C° 0 mm 2 mps 711 mmHg 25%
    19:00 +36°C° 0 mm 2 mps 712 mmHg 27%
    20:00 +33°C° 0 mm 1 mps 712 mmHg 29%
    21:00 +33°C° 0 mm 1 mps 712 mmHg 29%
    22:00 +32°C° 0 mm 1 mps 713 mmHg 30%
    23:00 +31°C° 0 mm 1 mps 713 mmHg 31%

    Day after tomorrow, 25 January, Saturday

    Time Temperature Precipitation Wind Pressure Humidity
    00:00 +31°C° 0 mm 1 mps 712 mmHg 33%
    01:00 +30°C° 0 mm 1 mps 712 mmHg 35%
    02:00 +30°C° 0 mm 1 mps 712 mmHg 36%
    03:00 +29°C° 0 mm 1 mps 712 mmHg 38%
    04:00 +29°C° 0 mm 1 mps 712 mmHg 39%
    05:00 +28°C° 0 mm 1 mps 712 mmHg 40%
    06:00 +29°C° 0 mm 1 mps 712 mmHg 38%
    07:00 +31°C° 0 mm 2 mps 713 mmHg 36%
    08:00 +32°C° 0 mm 2 mps 713 mmHg 34%
    09:00 +34°C° 0 mm 2 mps 713 mmHg 32%
    10:00 +35°C° 0 mm 2 mps 713 mmHg 30%
    11:00 +37°C° 0 mm 2 mps 713 mmHg 28%
    12:00 +38°C° 0 mm 2 mps 713 mmHg 26%
    13:00 +39°C° 0 mm 2 mps 712 mmHg 24%
    14:00 +40°C° 0 mm 2 mps 712 mmHg 22%
    15:00 +40°C° 0 mm 3 mps 711 mmHg 21%
    16:00 +40°C° 0 mm 3 mps 710 mmHg 20%
    17:00 +42°C° 0 mm 3 mps 709 mmHg 20%
    18:00 +39°C° 0 mm 3 mps 710 mmHg 22%
    19:00 +38°C° 0 mm 3 mps 710 mmHg 24%
    20:00 +37°C° 0 mm 2 mps 711 mmHg 26%
    21:00 +35°C° 0 mm 2 mps 711 mmHg 28%
    22:00 +34°C° 0 mm 2 mps 711 mmHg 29%
    23:00 +32°C° 0 mm 2 mps 711 mmHg 30%

    26 January, Sunday

    Time Temperature Precipitation Wind Pressure Humidity
    00:00 +32°C° 0 mm 1 mps 711 mmHg 33%
    01:00 +31°C° 0 mm 1 mps 711 mmHg 36%
    02:00 +31°C° 0 mm 1 mps 710 mmHg 38%
    03:00 +31°C° 0 mm 1 mps 710 mmHg 39%
    04:00 +30°C° 0 mm 1 mps 710 mmHg 40%
    05:00 +30°C° 0 mm 1 mps 710 mmHg 41%
    06:00 +31°C° 0 mm 1 mps 711 mmHg 37%
    07:00 +32°C° 0 mm 2 mps 711 mmHg 34%
    08:00 +34°C° 0 mm 2 mps 711 mmHg 30%
    09:00 +36°C° 0 mm 3 mps 711 mmHg 28%
    10:00 +37°C° 0 mm 3 mps 711 mmHg 27%
    11:00 +38°C° 0 mm 3 mps 711 mmHg 25%
    12:00 +39°C° 0 mm 3 mps 711 mmHg 24%
    13:00 +40°C° 0 mm 3 mps 711 mmHg 23%
    14:00 +42°C° 0 mm 3 mps 710 mmHg 21%
    15:00 +42°C° 0.1 mm 3 mps 710 mmHg 21%
    16:00 +42°C° 0.1 mm 3 mps 709 mmHg 20%
    17:00 +41°C° 0.1 mm 2 mps 709 mmHg 20%
    18:00 +40°C° 0.1 mm 2 mps 710 mmHg 23%
    19:00 +39°C° 0.1 mm 2 mps 711 mmHg 26%
    20:00 +37°C° 0.1 mm 2 mps 711 mmHg 29%
    21:00 +36°C° 0.2 mm 2 mps 712 mmHg 32%
    22:00 +35°C° 0.2 mm 3 mps 713 mmHg 35%
    23:00 +34°C° 0.2 mm 3 mps 714 mmHg 39%

    27 January, Monday

    Time Temperature Precipitation Wind Pressure Humidity
    00:00 +33°C° 0.3 mm 3 mps 714 mmHg 44%
    01:00 +31°C° 0.3 mm 3 mps 714 mmHg 49%
    02:00 +30°C° 0.3 mm 3 mps 714 mmHg 54%
    03:00 +29°C° 0.3 mm 4 mps 714 mmHg 53%
    04:00 +29°C° 0.3 mm 4 mps 714 mmHg 51%
    05:00 +29°C° 0.3 mm 4 mps 714 mmHg 50%
    06:00 +29°C° 0.1 mm 3 mps 715 mmHg 48%
    07:00 +29°C° 0.1 mm 2 mps 715 mmHg 47%
    08:00 +29°C° 0.1 mm 1 mps 716 mmHg 45%
    09:00 +29°C° 0.4 mm 2 mps 716 mmHg 50%
    10:00 +28°C° 0.4 mm 2 mps 716 mmHg 54%
    11:00 +27°C° 0.4 mm 3 mps 716 mmHg 58%
    12:00 +26°C° 0.9 mm 3 mps 716 mmHg 61%
    13:00 +26°C° 0.9 mm 2 mps 716 mmHg 63%
    14:00 +26°C° 0.9 mm 2 mps 716 mmHg 65%
    15:00 +26°C° 0.1 mm 3 mps 715 mmHg 66%
    16:00 +26°C° 0.1 mm 3 mps 715 mmHg 68%
    17:00 +26°C° 0.1 mm 4 mps 715 mmHg 69%
    18:00 +26°C° 0 mm 3 mps 715 mmHg 72%
    19:00 +25°C° 0 mm 2 mps 715 mmHg 75%
    20:00 +24°C° 0 mm 2 mps 715 mmHg 79%
    21:00 +24°C° 0 mm 2 mps 715 mmHg 78%
    22:00 +24°C° 0 mm 2 mps 715 mmHg 78%
    23:00 +24°C° 0 mm 2 mps 715 mmHg 78%

    28 January, Tuesday

    Time Temperature Precipitation Wind Pressure Humidity
    00:00 +24°C° 0 mm 2 mps 714 mmHg 79%
    01:00 +24°C° 0 mm 1 mps 714 mmHg 80%
    02:00 +24°C° 0 mm 1 mps 713 mmHg 81%
    03:00 +24°C° 0 mm 1 mps 713 mmHg 81%
    04:00 +23°C° 0 mm 1 mps 713 mmHg 81%
    05:00 +21°C° 0 mm 0 mps 713 mmHg 82%
    06:00 +24°C° 0 mm 1 mps 713 mmHg 78%
    07:00 +24°C° 0 mm 1 mps 713 mmHg 75%
    08:00 +25°C° 0 mm 1 mps 713 mmHg 72%
    09:00 +27°C° 0 mm 1 mps 713 mmHg 66%
    10:00 +28°C° 0 mm 1 mps 713 mmHg 59%
    11:00 +30°C° 0 mm 2 mps 713 mmHg 52%
    12:00 +31°C° 0 mm 2 mps 712 mmHg 49%
    13:00 +32°C° 0 mm 2 mps 711 mmHg 45%
    14:00 +34°C° 0 mm 3 mps 710 mmHg 42%
    15:00 +35°C° 0 mm 3 mps 710 mmHg 41%
    16:00 +35°C° 0 mm 3 mps 709 mmHg 39%
    17:00 +35°C° 0 mm 3 mps 709 mmHg 38%
    18:00 +34°C° 0.2 mm 3 mps 709 mmHg 42%
    19:00 +33°C° 0.2 mm 3 mps 709 mmHg 46%
    20:00 +31°C° 0.2 mm 3 mps 709 mmHg 50%
    21:00 +30°C° 0 mm 3 mps 710 mmHg 55%
    22:00 +29°C° 0 mm 2 mps 710 mmHg 60%
    23:00 +28°C° 0 mm 2 mps 711 mmHg 65%
    Show more